Theta_e
329 328 328 327 325 323 323 323 322 321 322 323 322 324 322 323 322 321 322 321 321 321 320 319 318 317 311
321 324 325 326 324 323 322 322 321 320 320 320 320 323 320 320 320 320 320 321 321 321 320 318 316 314 309
317 318 320 322 321 321 320 318 312 308 308 311 320 320 320 319 320 320 320 319 317 316 319 318 315 312 310
318 313 311 313 310 310 309 308 308 306 307 311 314 318 318 318 319 319 318 315 312 309 309 314 313 313 316
312 310 308 305 303 304 304 306 305 306 307 307 307 307 307 309 306 308 308 308 309 313 313 315 318 319 317
311 308 306 302 301 301 304 305 304 304 305 305 306 305 305 305 304 305 306 309 314 315 315 317 318 319 318
309 306 303 301 301 302 303 306 305 304 305 305 305 305 304 304 304 305 306 313 314 315 316 316 318 320 322
308 305 303 301 302 302 303 305 306 305 305 306 305 305 304 304 305 306 306 313 313 314 315 316 317 319 321
309 306 303 302 302 302 303 305 306 306 306 306 305 304 304 305 306 307 307 314 314 315 314 316 317 319 320
310 306 304 303 301 302 303 305 306 307 307 306 305 305 305 305 306 306 307 312 313 313 313 314 314 316 319
309 307 304 303 301 301 302 304 305 306 307 306 306 305 305 305 306 307 306 311 312 312 313 313 313 314 316
309 305 302 301 301 301 302 304 305 306 307 306 305 305 305 305 305 306 309 313 313 313 313 312 313 313 314
307 304 304 304 299 299 301 304 305 305 307 306 305 305 305 305 305 307 311 313 312 314 313 312 312 313 312
311 309 303 300 299 300 301 303 305 305 306 306 306 305 304 305 305 306 309 310 307 307 310 310 308 310 310
312 304 301 301 300 298 299 301 303 305 306 306 306 305 305 305 305 306 307 307 304 304 304 307 306 305 305
311 307 304 304 299 300 301 302 302 304 305 306 307 306 306 306 305 306 308 305 306 303 303 305 307 310 306
Wind_Speed
9 8 9 9 10 9 9 8 9 8 9 9 7 10 11 11 12 12 11 12 11 11 13 12 13 13 4
6 8 9 9 9 9 9 9 7 8 9 7 7 10 10 11 11 11 9 11 11 12 10 10 11 11 6
6 5 8 10 10 9 8 9 6 4 5 5 7 9 11 11 11 11 10 11 12 12 12 12 10 4 5
5 5 5 5 4 4 4 4 3 4 3 4 7 11 11 10 11 11 11 13 10 4 5 8 5 5 7
6 4 2 3 3 2 4 4 3 3 3 3 3 3 3 6 4 6 5 5 7 6 6 6 7 8 4
5 4 4 3 3 3 3 5 4 2 3 2 3 3 3 2 5 4 4 5 5 7 7 9 6 5 3
7 4 4 4 4 4 3 4 4 4 4 3 3 3 3 3 4 4 4 7 5 5 7 7 7 7 7
6 7 5 4 4 4 3 4 5 4 4 4 3 3 3 4 3 4 4 5 4 4 6 7 8 8 8
9 7 6 5 4 5 4 5 5 5 5 5 4 3 3 4 5 4 4 8 4 4 7 7 6 9 9
9 6 5 6 5 4 5 4 6 6 6 5 4 4 4 3 4 3 4 5 4 5 5 6 6 8 9
8 7 6 7 5 4 4 5 6 6 6 5 4 4 5 3 4 3 3 3 4 4 6 6 7 8 8
7 6 4 4 4 4 4 5 7 5 6 5 4 5 4 4 4 3 3 4 4 5 6 8 8 7 8
6 6 5 7 4 3 4 6 7 6 6 6 4 5 4 5 4 5 4 10 5 3 4 6 7 9 11
10 7 4 5 2 2 4 5 6 7 6 6 6 5 5 5 5 5 3 3 3 2 2 1 3 5 7
13 8 4 6 4 3 3 4 5 7 7 6 7 6 5 4 5 4 4 3 4 3 3 2 3 3 2
16 14 14 9 6 5 5 5 5 7 7 7 7 6 6 4 5 4 3 3 3 4 1 3 4 4 3
Wind_Direction
144 144 143 137 131 130 126 117 104 99 90 69 59 59 65 59 62 58 52 53 53 41 48 35 16 4 12
131 133 131 125 124 124 115 101 89 95 81 65 28 68 65 66 70 67 63 53 46 40 42 42 25 18 356
127 131 121 122 116 113 112 107 89 83 71 50 51 78 72 74 77 68 60 50 42 29 26 34 25 24 3
128 128 126 114 110 125 121 112 106 94 81 84 68 68 66 67 72 65 59 47 37 16 3 17 25 19 21
139 138 129 121 125 130 138 133 123 93 79 76 76 58 63 58 45 53 42 41 32 37 37 33 37 42 44
139 148 150 146 145 154 172 147 134 120 107 100 93 85 83 57 66 57 50 48 43 52 35 57 29 17 32
153 146 153 166 162 167 172 166 142 145 130 127 109 103 91 84 72 66 60 67 50 29 23 13 15 23 24
163 163 167 162 168 157 174 179 159 148 138 131 123 110 95 97 79 82 84 78 44 28 28 18 28 26 25
169 172 165 165 171 162 171 177 164 153 151 141 134 120 118 107 97 88 83 94 53 35 39 15 27 37 38
170 167 166 164 165 178 160 168 169 161 153 143 137 137 132 112 105 93 100 86 57 43 45 29 21 28 38
175 157 162 166 160 180 160 161 174 164 158 144 150 142 138 121 108 118 73 77 81 56 60 48 31 33 28
168 143 126 144 153 159 177 168 166 166 160 145 147 145 138 122 115 113 109 79 93 86 74 59 43 33 33
161 159 167 182 170 160 179 170 167 164 164 154 149 150 145 139 156 144 123 120 110 70 94 77 60 47 39
178 166 148 131 144 154 160 175 169 165 169 161 154 167 161 141 154 161 152 140 111 36 112 90 90 44 35
171 128 102 92 88 109 175 178 184 167 168 166 160 158 162 150 170 171 151 159 121 63 70 155 126 113 127
165 168 167 176 163 191 178 164 166 169 168 168 164 161 161 158 175 169 154 120 109 130 105 33 68 109 118